Weather in Tselinnoye

Russia / Tyva Republic     51°19′45″N   94°48′16″E
temp.,
°C
wind,
m/s
gust,
m/s
humid.,
%
clouds,
%
prec.,
mm/h
press.,
hPa
HPBL,
m
5 march, fri
fri501:00−17ese11820 0.0 103420
04:00−17ese12780 0.0 103320
07:00−18ese117813 0.0 103320
10:00−14ene117917 0.0 103054
13:00−12nne117842 0.0 1028144
16:00−11nw3391100 0.0 1025104
19:00−15w1293100 0.0 102820
22:00−16sw1193100 0.0 103120
6 march, sat
sat601:00−16ese018896 0.0 103520
04:00−17e118352 0.0 103520
07:00−18e118127 0.0 103620
10:00−13nnw118358 0.0 103444
13:00−10nnw228680 0.0 1030159
16:00−10nw1192100 0.0 102788
19:00−15w009690 0.0 102821
22:00−16sse019185 0.0 102820
7 march, sun
sun701:00−16nne008877 0.0 102820
04:00−17nne009093 0.0 102720
07:00−18w009794 0.0 102820
10:00−14nnw119397 0.0 102738
13:00−11nw218999 0.0 1026154
16:00−9nw118899 0.0 1025100
19:00−12w018899 0.0 102721
22:00−13nw1189100 0.0 102921
8 march, mon
mon801:00−16sse119263 0.0 103120
04:00−16e118533 0.0 103120
07:00−18wnw009037 0.0 103220
10:00−13wnw11872 0.0 103030
13:00−10nw11881 0.0 1027123
16:00−9nw11931 0.0 102563
19:00−14w01961 0.0 102621
22:00−16s00970 0.0 102721
9 march, tue
tue901:00−16ese009410 0.0 102720
04:00−17wnw019871 0.0 102820
07:00−14w009185 0.0 103020
10:00−11ese1186100 0.0 103136
13:00−8nnw218177 0.0 1030158
16:00−7nw118633 0.0 102894
19:00−13nne119017 0.0 103021
22:00−14nnw009136 0.0 103121